TimeCST,TemperatureF,Dew PointF,Humidity,Sea Level PressureIn,VisibilityMPH,Wind Direction,Wind SpeedMPH,Gust SpeedMPH,PrecipitationIn,Events,Conditions,WindDirDegrees,DateUTC
12:54 AM,60.1,54.0,80,30.11,10.0,NNW,8.1,-,N/A,,Overcast,330,2011-11-23 06:54:00
1:54 AM,57.9,52.0,81,30.12,10.0,NNW,10.4,-,N/A,,Overcast,340,2011-11-23 07:54:00
2:54 AM,57.0,50.0,77,30.13,10.0,NNW,8.1,20.7,N/A,,Overcast,330,2011-11-23 08:54:00
3:27 AM,53.6,48.2,82,30.14,10.0,NNW,11.5,-,N/A,,Scattered Clouds,330,2011-11-23 09:27:00
3:54 AM,53.1,48.0,83,30.14,10.0,NNW,11.5,-,N/A,,Partly Cloudy,330,2011-11-23 09:54:00
4:54 AM,53.1,48.0,83,30.17,10.0,NNW,12.7,-,N/A,,Partly Cloudy,340,2011-11-23 10:54:00
5:01 AM,53.6,48.2,82,30.17,10.0,NNW,13.8,-,N/A,,Overcast,340,2011-11-23 11:01:00
5:33 AM,53.6,48.2,82,30.18,10.0,NNW,13.8,-,N/A,,Overcast,330,2011-11-23 11:33:00
5:54 AM,53.1,48.0,83,30.19,10.0,North,10.4,-,N/A,,Overcast,350,2011-11-23 11:54:00
6:54 AM,53.1,48.0,83,30.21,10.0,NNW,9.2,-,N/A,,Overcast,340,2011-11-23 12:54:00
7:54 AM,53.1,48.0,83,30.23,10.0,North,9.2,-,N/A,,Overcast,360,2011-11-23 13:54:00
8:27 AM,53.6,48.2,82,30.24,10.0,North,6.9,-,N/A,,Overcast,10,2011-11-23 14:27:00
8:54 AM,54.0,48.0,80,30.25,10.0,North,9.2,-,N/A,,Overcast,360,2011-11-23 14:54:00
9:54 AM,55.9,48.0,75,30.25,10.0,North,11.5,-,N/A,,Overcast,360,2011-11-23 15:54:00
10:54 AM,57.0,48.0,72,30.24,10.0,NNW,12.7,-,N/A,,Mostly Cloudy,340,2011-11-23 16:54:00
11:40 AM,59.0,48.2,67,30.24,10.0,North,8.1,16.1,N/A,,Partly Cloudy,360,2011-11-23 17:40:00
11:54 AM,60.8,48.2,63,30.23,10.0,North,8.1,-,N/A,,Scattered Clouds,10,2011-11-23 17:54:00
12:54 PM,62.1,48.9,62,30.21,10.0,North,10.4,-,N/A,,Scattered Clouds,350,2011-11-23 18:54:00
1:54 PM,62.1,48.9,62,30.20,10.0,NE,9.2,-,N/A,,Partly Cloudy,40,2011-11-23 19:54:00
2:54 PM,62.1,48.0,60,30.19,10.0,NNE,8.1,-,N/A,,Clear,20,2011-11-23 20:54:00
3:54 PM,63.0,48.0,58,30.21,10.0,NNE,10.4,-,N/A,,Clear,20,2011-11-23 21:54:00
4:54 PM,59.0,48.9,69,30.22,10.0,NNE,4.6,-,N/A,,Clear,20,2011-11-23 22:54:00
5:54 PM,54.0,48.0,80,30.24,10.0,Calm,Calm,-,N/A,,Clear,0,2011-11-23 23:54:00
6:54 PM,51.1,48.0,89,30.26,10.0,North,3.5,-,N/A,,Clear,360,2011-11-24 00:54:00
7:54 PM,51.1,46.9,86,30.28,10.0,North,4.6,-,N/A,,Clear,360,2011-11-24 01:54:00
8:54 PM,48.2,46.4,93,30.30,10.0,NNW,3.5,-,N/A,,Clear,340,2011-11-24 02:54:00
9:54 PM,48.9,46.0,90,30.30,10.0,Calm,Calm,-,N/A,,Clear,0,2011-11-24 03:54:00
10:54 PM,50.0,46.0,86,30.29,10.0,NNE,4.6,-,N/A,,Clear,30,2011-11-24 04:54:00
11:54 PM,48.9,45.0,86,30.29,10.0,NE,3.5,-,N/A,,Clear,50,2011-11-24 05:54:00